This is the latest recevied weather packets stored in our database for station/object KROG. If no packets are shown the sender has not sent any weather packets the latest 10 day(s).
| Time | Temp. | Humidity | Pressure | Rain* | Wind** | Luminosity | Snow |
|---|---|---|---|---|---|---|---|
| 1777968219 | 15.56° C | 87% | 1006.1 hPa | - | - | - | - |
| 1777967616 | 15° C | 93% | 1007.1 hPa | - | - | - | - |
| 1777967018 | 15° C | 93% | 1013.5 hPa | - | - | - | - |
| 1777966415 | 15.56° C | 93% | 1007.8 hPa | - | - | - | - |
| 1777965819 | 15.56° C | 93% | 1006.1 hPa | - | - | - | - |
| 1777965215 | 15.56° C | 93% | 1006.1 hPa | - | - | - | - |
| 1777964617 | 15.56° C | 93% | 1006.1 hPa | - | - | - | - |
| 1777964017 | 17.78° C | 72% | 1007.1 hPa | - | - | - | - |
| 1777963418 | 17.78° C | 72% | 1007.1 hPa | - | - | - | - |
| 1777962814 | 17.78° C | 72% | 1007.1 hPa | - | - | - | - |
| 1777962213 | 17.78° C | 72% | 1007.1 hPa | - | - | - | - |
| 1777961617 | 17.78° C | 72% | 1007.1 hPa | - | - | - | - |
| 1777961016 | 17.78° C | 72% | 1007.1 hPa | - | - | - | - |
| 1777960422 | 18.89° C | 68% | 1006.8 hPa | - | - | - | - |
| 1777959821 | 18.89° C | 68% | 1006.8 hPa | - | - | - | - |
| 1777959216 | 18.89° C | 68% | 1006.8 hPa | - | - | - | - |
| 1777958617 | 18.89° C | 68% | 1006.8 hPa | - | - | - | - |
| 1777958017 | 18.89° C | 68% | 1006.8 hPa | - | - | - | - |
| 1777957418 | 18.89° C | 68% | 1006.8 hPa | - | - | - | - |
| 1777956814 | 17.78° C | 72% | 1007.1 hPa | - | - | - | - |
| 1777956215 | 17.78° C | 72% | 1007.1 hPa | - | - | - | - |
| 1777955615 | 17.78° C | 72% | 1007.1 hPa | - | - | - | - |
| 1777955013 | 17.78° C | 72% | 1007.1 hPa | - | - | - | - |
| 1777954843 | 17.78° C | 72% | 1007.1 hPa | - | - | - | - |
| 1777954418 | 17.78° C | 72% | 1007.1 hPa | - | - | - | - |
* Rain since midnight (hover to see other rain measurements)
** Current wind speed in m/s (hover to see current wind gust speed)